Regional Weather Roundup
Issued by NWS

Home | Current Version | Previous Version | Graphics & Text | Print | Product List | Glossary On
Versions: 1 2 3 4 5 6 7 8 9 10 11 12 13 14 15 16 17 18 19 20 21 22 23 24 25 26 27 28
000
ASUS45 KCYS 182310
RWRWY

WYOMING REGIONAL WEATHER ROUNDUP
NATIONAL WEATHER SERVICE CHEYENNE WY
400 PM MST SAT FEB 18 2017

NOTE:  "FAIR" INDICATES FEW OR NO CLOUDS BELOW 12,000 FEET
WITH NO SIGNIFICANT WEATHER AND/OR OBSTRUCTIONS TO VISIBILITY.

WYZ001-190000-
YELLOWSTONE NATIONAL PARK

CITY           SKY/WX    TMP DP  RH WIND       PRES   REMARKS
LK YELLOWSTONE   N/A     33  31  92 CALM      29.65R
W YELLOWSTONE  NOT AVBL

$$
WYZ002>013-054>058-071-098>099-190000-
NORTHERN WYOMING

CITY           SKY/WX    TMP DP  RH WIND       PRES   REMARKS
JACKSON        CLOUDY    37  36  93 S9        29.64S WCI  31
CODY           FAIR      48  30  49 E6        29.57S
GREYBULL       PTSUNNY   46  34  62 N5        29.54F
WORLAND        FAIR      48  35  60 S10       29.54F
SHERIDAN       FAIR      50  33  52 VRB6      29.55F
BUFFALO        FAIR      53  33  46 N8        29.56S
GILLETTE       FAIR      59  31  34 SW18G31   29.55F
HULETT         FAIR      61  30  31 SW10      29.59R
NEWCASTLE      FAIR      59  27  29 SW14      29.62S

$$
WYZ014>020-022>026-101>103-190000-
CENTRAL WYOMING

CITY           SKY/WX    TMP DP  RH WIND       PRES   REMARKS
BIG PINEY      CLOUDY    34  32  92 S8        29.70S WCI  27
PINEDALE       MOCLDY    36  32  87 S6        29.70F WCI  31
DUBOIS         MOCLDY    39  27  60 NW12      29.61F WCI  32
LANDER         FAIR      47  33  58 NE6       29.59S
RIVERTON       FAIR      45  31  58 CALM      29.60R
CASPER         LGT RAIN  51  29  42 SW37G49   29.63F
DOUGLAS        PTSUNNY   59  27  29 SW12      29.65R

$$
WYZ021-027>030-104>119-190000-
SOUTHERN WYOMING

CITY           SKY/WX    TMP DP  RH WIND       PRES   REMARKS
EVANSTON       FLURRIES  37  29  72 NE9       29.67R WCI  30
KEMMERER         N/A     36  32  87 N7        29.69S WCI  30
FORT BRIDGER   FAIR      35  33  94 CALM      29.70S
ROCK SPRINGS   CLOUDY    39  31  72 S18       29.68F WCI  30
DIXON          DRIZZLE   44  32  63 S12       29.79R
RAWLINS        CLOUDY    42  31  64 SW18      29.75R
SARATOGA       CLOUDY    46  28  49 W10G18    29.74S
LARAMIE        FAIR      51  22  31 W8        29.69F
CHEYENNE       FAIR      57  20  23 S12       29.68F
TORRINGTON     FAIR      64  20  18 SE16      29.61S
PINE BLUFFS    FAIR      61  19  20 SE16G25   29.69R

$$




USA.gov is the U.S. government's official web portal to all federal, state and local government web resources and services.